< < Back
Terminal Aerodrome Forecast


Current Version              Previous Versions:   1  2  3  4  5  6  7  8  9  

Terminal Aerodrome Forecast

132
FTUS42 KFFC 081127
TAFMCN
TAF
KMCN 081127Z 0812/0912 25003KT P6SM SCT090 BKN250
     FM081500 26008KT P6SM SCT050 BKN120
     FM081900 27011G20KT P6SM SCT045 BKN080
     FM090200 28008KT P6SM BKN050=

Latest METAR

091
SAUS80 KWBC 090300 RRA
MTRMCN
METAR KMCN 090253Z AUTO 27006KT 10SM CLR 06/M04 A2982 RMK AO2 SLP096
T00561039 53014 TSNO


USA.gov is the U.S. government's official web portal to all federal, state and local government web resources and services.